Temp
9 9 11 12 11 11 12 13 15 17 17 20 21 22 22 23 23 20 23 22 22 22 21 21 21 20 19 18 17 17 17 17 17 17 16 16 16 16 16 16 15 15 16 15 14 16 16 15 15
8 9 10 10 10 10 13 14 15 17 19 21 22 21 22 22 23 22 19 22 21 21 20 21 21 20 19 18 17 17 17 17 17 17 16 16 16 16 16 16 15 15 15 15 15 16 16 15 15
8 9 10 8 9 11 13 14 15 16 17 17 20 22 22 22 24 23 21 21 20 19 19 20 20 20 19 18 18 17 17 17 17 16 16 16 16 16 16 16 15 16 15 16 16 16 16 16 15
8 9 10 8 9 11 12 13 14 14 15 17 16 15 20 22 24 21 20 22 21 20 19 19 19 20 19 18 18 17 17 16 16 16 16 16 16 15 16 16 15 16 16 16 16 16 16 16 16
8 9 7 7 8 9 10 12 14 13 14 16 13 14 15 19 21 20 20 20 19 19 19 18 18 19 19 18 18 18 17 16 16 16 16 16 16 15 16 16 15 16 16 16 16 16 16 16 16
8 9 6 6 8 9 10 12 12 12 13 14 12 12 14 19 20 20 20 20 19 19 18 18 17 18 18 18 18 17 17 17 16 16 16 16 15 15 16 16 15 16 16 16 16 16 16 16 15
7 7 6 6 7 8 10 12 11 12 13 13 13 12 14 16 15 18 19 20 19 18 18 17 17 17 17 18 17 17 16 17 16 16 15 15 15 15 15 15 15 16 16 16 16 16 16 16 15
7 7 7 7 7 8 10 11 12 12 12 14 13 12 13 15 14 15 17 19 19 17 17 17 17 17 17 17 17 16 16 16 16 15 15 14 15 15 15 15 15 15 16 16 16 16 15 15 15
7 6 6 7 7 8 10 10 12 13 12 13 13 13 13 14 13 13 14 17 18 16 17 17 17 16 16 16 15 15 16 16 15 15 15 15 14 14 14 14 14 14 16 16 16 15 15 15 15
6 6 8 8 8 9 10 10 10 10 11 11 11 12 12 14 13 13 14 16 18 16 16 16 16 16 15 16 15 15 15 15 15 14 14 15 14 14 13 12 13 15 16 15 15 15 15 15 15
6 6 8 9 10 9 9 10 9 9 9 10 11 11 12 13 13 12 12 14 18 17 17 15 16 15 15 15 15 15 15 15 14 14 15 16 15 14 14 12 14 16 15 15 15 15 15 15 14
8 8 8 9 9 9 9 10 8 9 9 11 11 12 12 13 12 12 12 13 15 15 17 15 15 15 14 15 14 14 14 14 15 15 15 16 16 13 14 13 15 15 15 15 15 15 15 15 15
8 9 9 10 10 10 9 9 9 10 11 12 12 11 11 11 12 11 11 12 14 14 15 14 15 15 14 14 14 14 14 14 14 14 15 16 16 16 14 13 14 16 15 15 15 15 15 15 14
9 9 8 9 10 9 9 9 9 10 11 11 11 12 10 12 11 12 13 13 13 14 14 14 14 14 15 15 14 14 14 14 14 14 15 15 16 16 16 15 17 16 15 15 15 15 14 14 14
9 8 10 10 11 10 10 9 9 10 11 12 12 12 11 12 12 13 13 13 12 14 14 14 15 14 14 15 15 15 14 14 14 14 15 14 15 15 15 15 16 15 15 15 14 14 14 14 14
9 9 8 11 10 10 9 10 11 12 12 12 12 12 12 13 13 14 11 12 11 13 14 15 15 15 14 13 14 14 14 14 14 14 14 13 14 15 15 15 15 15 14 14 14 14 14 14 14
9 6 8 9 11 10 9 8 10 12 12 11 12 12 13 12 13 13 12 14 11 12 13 14 14 13 16 13 14 14 14 13 14 13 13 13 13 14 14 14 15 15 15 15 14 14 14 14 14
8 8 9 9 11 10 9 8 10 11 12 11 12 12 12 13 12 12 14 12 10 11 12 14 14 14 14 14 14 13 14 14 14 13 13 13 14 14 14 14 15 15 15 15 15 14 14 14 14
8 10 9 11 11 10 10 9 10 11 12 12 12 13 13 13 11 13 10 11 11 11 12 13 14 15 13 13 13 13 13 13 13 13 13 14 14 14 14 15 15 15 15 15 15 14 14 13 13
11 11 9 10 11 10 10 10 11 11 12 12 13 14 14 12 13 12 11 11 10 10 11 12 13 13 13 12 13 14 14 13 13 13 13 13 14 14 14 14 14 14 14 14 14 13 13 13 13
10 10 10 11 12 10 10 10 10 12 13 14 14 15 15 13 14 12 12 12 11 12 12 12 12 12 13 12 12 13 13 13 13 13 13 13 14 14 14 13 13 13 13 13 13 13 13 14 13
8 11 11 10 9 9 11 9 12 11 13 14 13 15 14 14 13 14 12 12 12 11 11 12 13 12 13 12 12 12 13 13 12 13 13 13 13 13 13 13 13 13 13 14 14 14 14 14 14
8 9 9 9 9 10 11 9 8 11 12 12 11 12 13 14 14 13 13 12 12 12 12 12 12 12 12 13 12 12 13 14 13 13 13 12 13 13 13 14 14 14 14 13 13 14 13 13 12
9 9 9 9 9 6 10 10 10 11 11 11 11 11 12 14 13 13 12 12 12 11 12 11 11 11 11 12 12 11 12 14 14 13 13 13 13 13 13 14 14 14 14 14 14 14 14 14 12
9 7 3 5 4 6 10 10 9 11 11 9 9 9 12 11 11 11 11 11 12 12 12 11 11 12 11 11 12 12 14 14 14 14 13 13 13 13 13 13 14 14 13 14 14 14 14 14 12
7 7 7 8 9 7 9 8 9 10 11 8 9 9 11 11 11 10 11 13 13 13 11 11 11 11 11 11 11 12 12 13 13 14 14 14 14 14 14 14 14 14 14 14 15 15 15 15 14
6 5 8 7 7 8 7 8 9 10 10 10 8 8 9 11 12 11 11 12 12 12 11 11 12 12 11 12 10 11 11 11 12 12 13 12 13 13 13 13 13 13 13 13 13 12 15 14 13
8 7 6 4 6 8 7 6 7 8 8 9 9 8 10 11 11 11 11 11 11 12 12 12 12 12 11 11 11 12 12 13 12 12 12 12 12 12 12 12 12 12 13 11 11 12 13 13 12
6 5 5 3 5 7 7 7 9 7 7 7 7 10 10 10 10 11 11 12 12 12 12 12 12 13 12 11 11 11 11 11 11 12 12 12 12 12 13 12 12 12 11 12 11 13 12 12 11
7 5 3 2 4 6 5 7 7 6 7 8 8 9 10 10 9 9 9 11 12 12 12 12 12 12 12 12 11 11 11 11 11 11 11 11 13 12 12 13 12 13 12 11 11 11 11 12 12
Height
1503 1506 1508 1511 1518 1507 1480 1480 1476 1478 1481 1477 1481 1480 1478 1477 1478 1489 1469 1472 1475 1477 1481 1486 1491 1497 1501 1506 1511 1516 1520 1523 1525 1528 1532 1535 1537 1539 1541 1543 1546 1547 1549 1550 1551 1552 1553 1555 1556
1503 1506 1509 1509 1513 1506 1473 1473 1476 1477 1476 1476 1477 1478 1475 1472 1476 1474 1472 1471 1476 1478 1480 1483 1488 1495 1500 1504 1509 1515 1518 1523 1525 1528 1531 1534 1537 1539 1541 1544 1547 1549 1551 1552 1553 1554 1555 1557 1558
1504 1506 1509 1510 1505 1478 1478 1468 1471 1478 1478 1475 1477 1473 1473 1469 1469 1468 1467 1472 1471 1479 1481 1483 1486 1492 1499 1503 1507 1513 1518 1522 1525 1528 1531 1534 1537 1540 1542 1544 1546 1550 1552 1553 1555 1556 1558 1559 1560
1505 1508 1510 1507 1488 1463 1474 1469 1472 1477 1475 1475 1479 1476 1471 1468 1464 1462 1465 1469 1471 1476 1480 1484 1487 1489 1497 1502 1506 1510 1516 1520 1525 1528 1531 1534 1537 1540 1542 1544 1547 1550 1553 1555 1556 1557 1559 1561 1562
1506 1508 1511 1503 1483 1476 1478 1479 1476 1477 1477 1479 1480 1479 1475 1466 1462 1456 1462 1467 1472 1472 1477 1483 1487 1489 1494 1500 1505 1508 1514 1519 1524 1528 1531 1534 1537 1540 1543 1545 1547 1550 1553 1556 1557 1559 1560 1562 1563
1506 1507 1509 1502 1483 1479 1480 1481 1483 1477 1472 1478 1480 1480 1473 1467 1469 1459 1458 1462 1470 1469 1474 1480 1485 1490 1492 1497 1503 1506 1511 1517 1522 1527 1530 1533 1536 1540 1543 1546 1548 1551 1553 1556 1558 1560 1562 1564 1565
1503 1505 1504 1498 1490 1482 1479 1477 1480 1476 1473 1472 1478 1479 1472 1468 1467 1466 1459 1457 1464 1468 1470 1478 1481 1487 1493 1496 1501 1505 1509 1515 1521 1526 1530 1533 1536 1539 1543 1546 1549 1551 1553 1557 1559 1561 1563 1565 1566
1502 1503 1497 1491 1486 1475 1475 1476 1476 1475 1465 1471 1472 1471 1467 1464 1463 1463 1468 1459 1459 1464 1469 1475 1478 1483 1490 1495 1499 1504 1508 1513 1519 1525 1529 1532 1535 1538 1542 1545 1549 1552 1554 1557 1559 1562 1564 1566 1567
1500 1497 1490 1487 1486 1473 1473 1475 1471 1468 1466 1463 1463 1463 1461 1463 1465 1463 1460 1458 1458 1462 1466 1473 1476 1482 1487 1493 1497 1502 1507 1512 1518 1523 1527 1531 1535 1537 1541 1545 1549 1552 1555 1557 1560 1562 1564 1567 1569
1495 1489 1480 1481 1477 1472 1470 1470 1467 1465 1464 1457 1462 1459 1460 1458 1461 1455 1455 1458 1454 1455 1462 1469 1474 1480 1485 1490 1495 1499 1504 1509 1514 1519 1524 1528 1533 1536 1541 1544 1548 1551 1555 1558 1560 1563 1565 1567 1569
1485 1481 1477 1475 1473 1471 1468 1464 1464 1462 1461 1455 1456 1454 1453 1449 1453 1458 1453 1447 1449 1448 1456 1466 1469 1478 1484 1488 1493 1496 1501 1505 1511 1517 1521 1525 1530 1535 1540 1543 1546 1550 1554 1557 1560 1562 1564 1566 1569
1478 1473 1472 1467 1468 1468 1463 1462 1458 1458 1451 1450 1451 1447 1445 1440 1450 1451 1450 1443 1446 1441 1447 1462 1468 1476 1482 1489 1492 1495 1500 1503 1508 1514 1519 1522 1527 1532 1538 1542 1545 1549 1553 1556 1560 1562 1564 1566 1568
1470 1466 1465 1463 1461 1459 1457 1454 1448 1443 1440 1445 1441 1445 1441 1439 1441 1445 1447 1441 1418 1437 1442 1453 1464 1474 1481 1487 1491 1494 1499 1504 1508 1512 1517 1521 1526 1530 1535 1541 1544 1548 1552 1555 1558 1561 1563 1565 1566
1462 1461 1458 1456 1455 1455 1456 1450 1454 1433 1434 1435 1434 1434 1435 1436 1442 1443 1441 1445 1419 1424 1440 1449 1459 1470 1479 1486 1491 1495 1497 1503 1507 1511 1515 1520 1525 1530 1534 1538 1543 1547 1550 1554 1557 1560 1561 1563 1566
1460 1458 1452 1448 1449 1451 1452 1443 1438 1423 1429 1426 1425 1422 1425 1430 1437 1434 1431 1438 1444 1432 1442 1448 1456 1466 1475 1482 1488 1494 1498 1502 1505 1510 1514 1520 1524 1529 1534 1538 1542 1545 1549 1552 1555 1558 1561 1563 1565
1458 1454 1454 1439 1442 1446 1449 1427 1424 1422 1420 1414 1414 1420 1423 1425 1432 1429 1431 1441 1426 1436 1439 1448 1456 1464 1472 1481 1485 1491 1496 1500 1505 1510 1513 1519 1523 1528 1532 1537 1541 1545 1548 1551 1554 1557 1559 1561 1563
1456 1462 1453 1446 1436 1439 1442 1429 1417 1416 1413 1413 1412 1412 1412 1418 1418 1424 1434 1432 1440 1435 1439 1446 1452 1458 1464 1477 1485 1489 1493 1498 1503 1508 1512 1517 1521 1526 1531 1535 1539 1544 1546 1550 1553 1555 1558 1560 1561
1458 1454 1447 1444 1431 1432 1433 1424 1410 1410 1410 1409 1407 1407 1409 1409 1411 1416 1423 1434 1439 1437 1444 1447 1453 1454 1463 1474 1485 1488 1491 1498 1503 1507 1511 1514 1519 1525 1530 1534 1538 1541 1544 1547 1551 1553 1555 1558 1559
1455 1446 1445 1434 1428 1428 1425 1419 1410 1405 1402 1404 1408 1411 1414 1414 1418 1412 1430 1435 1437 1440 1440 1447 1452 1454 1462 1472 1481 1486 1488 1492 1501 1506 1510 1513 1517 1523 1527 1531 1535 1538 1541 1545 1549 1552 1553 1554 1557
1444 1443 1443 1436 1431 1430 1423 1412 1403 1401 1402 1402 1400 1403 1403 1411 1412 1420 1431 1437 1439 1439 1442 1444 1449 1452 1458 1469 1477 1484 1485 1490 1498 1504 1508 1512 1516 1520 1525 1528 1532 1537 1539 1542 1547 1549 1551 1554 1555
1442 1441 1440 1434 1423 1424 1424 1413 1404 1398 1398 1398 1398 1397 1400 1408 1411 1423 1430 1433 1437 1441 1442 1443 1448 1451 1454 1463 1472 1479 1483 1490 1496 1502 1506 1509 1514 1518 1522 1526 1530 1534 1537 1540 1544 1547 1548 1552 1553
1448 1437 1435 1432 1434 1436 1422 1431 1410 1406 1401 1400 1398 1398 1402 1407 1413 1419 1427 1430 1434 1438 1441 1441 1443 1446 1453 1462 1467 1473 1478 1485 1490 1496 1503 1506 1511 1515 1520 1524 1528 1531 1535 1538 1542 1544 1547 1549 1551
1446 1439 1437 1435 1436 1431 1425 1434 1436 1413 1408 1408 1405 1403 1405 1408 1414 1423 1427 1427 1431 1436 1438 1441 1439 1445 1451 1452 1466 1473 1479 1484 1488 1494 1500 1503 1508 1512 1516 1520 1524 1527 1531 1535 1537 1541 1545 1547 1548
1440 1439 1434 1430 1430 1451 1427 1428 1431 1424 1423 1418 1414 1412 1410 1412 1417 1424 1427 1432 1432 1435 1437 1439 1440 1438 1448 1451 1459 1473 1479 1483 1486 1492 1496 1499 1503 1508 1513 1516 1520 1523 1526 1529 1531 1534 1536 1539 1545
1442 1445 1468 1455 1467 1453 1428 1434 1448 1432 1426 1426 1425 1421 1417 1416 1419 1425 1429 1432 1435 1438 1439 1440 1442 1443 1446 1450 1459 1471 1477 1481 1487 1491 1493 1496 1501 1504 1508 1513 1517 1520 1524 1526 1527 1529 1527 1530 1539
1451 1450 1451 1441 1437 1444 1434 1448 1454 1437 1433 1430 1426 1428 1425 1425 1424 1426 1430 1434 1437 1439 1439 1443 1446 1446 1447 1450 1461 1469 1474 1479 1484 1488 1491 1496 1498 1502 1506 1511 1515 1518 1521 1521 1524 1525 1523 1522 1525
1454 1460 1450 1449 1446 1447 1456 1453 1442 1441 1435 1435 1435 1433 1433 1430 1427 1429 1429 1433 1436 1440 1441 1443 1445 1445 1451 1454 1459 1465 1471 1474 1481 1485 1489 1492 1495 1498 1502 1505 1508 1511 1514 1517 1519 1519 1520 1519 1523
1455 1454 1461 1464 1464 1452 1461 1468 1464 1456 1452 1442 1438 1435 1434 1430 1429 1428 1430 1434 1437 1438 1439 1440 1442 1447 1449 1454 1460 1464 1467 1472 1477 1481 1485 1487 1489 1494 1497 1498 1502 1505 1507 1509 1513 1512 1512 1513 1519
1465 1467 1465 1474 1469 1458 1464 1469 1465 1462 1457 1453 1448 1445 1442 1436 1434 1435 1434 1436 1438 1438 1437 1437 1441 1444 1446 1454 1458 1462 1465 1469 1474 1475 1479 1482 1485 1489 1490 1492 1498 1498 1503 1503 1506 1506 1508 1509 1513
1468 1471 1474 1487 1483 1471 1479 1476 1468 1464 1460 1458 1455 1452 1449 1445 1442 1439 1437 1438 1438 1438 1438 1439 1441 1444 1446 1451 1456 1459 1462 1464 1466 1470 1472 1476 1478 1482 1486 1489 1493 1495 1499 1500 1501 1501 1501 1505 1507
Wind_Speed
5 4 13 10 2 6 20 8 8 2 5 13 27 15 13 25 5 5 9 25 22 31 38 37 34 32 31 30 28 26 24 23 21 22 21 20 19 20 19 21 20 18 23 21 19 21 24 23 24
11 8 8 2 5 8 7 18 18 3 10 15 21 29 26 22 15 5 26 21 24 31 39 39 35 33 32 31 28 27 25 24 21 21 21 20 20 21 19 19 19 18 23 20 19 21 23 24 23
10 9 7 3 5 18 8 4 7 4 19 23 11 20 27 9 21 15 16 22 27 33 40 39 37 34 32 31 30 28 26 24 22 21 22 21 22 21 20 23 21 19 21 19 21 22 22 22 22
5 4 3 5 20 27 13 12 21 17 29 13 22 10 23 21 23 21 22 24 28 30 40 39 37 34 33 31 30 29 28 26 24 22 23 23 23 22 22 25 22 20 20 21 21 21 20 20 20
3 2 3 7 25 16 12 14 25 15 18 21 17 11 22 22 18 24 27 29 34 31 40 39 36 34 33 31 29 29 29 28 25 23 25 25 25 23 23 25 23 22 22 20 20 20 20 20 19
3 2 4 13 24 17 12 20 22 22 31 19 13 14 14 9 17 29 31 30 32 30 39 39 37 34 32 31 30 30 31 30 27 25 27 27 26 23 23 27 24 23 22 20 20 20 19 18 17
4 2 6 14 16 17 15 18 17 24 28 22 6 5 16 20 10 22 31 36 34 28 39 40 38 34 31 31 31 31 32 31 29 27 28 28 24 24 24 27 24 24 23 21 19 19 18 17 16
8 3 7 11 16 22 21 20 26 24 31 36 17 7 8 12 18 4 27 37 36 34 35 40 39 35 31 31 32 34 33 33 31 30 28 26 26 26 26 28 26 23 23 21 19 18 17 16 15
9 5 11 17 15 23 23 15 25 25 12 29 18 24 33 36 32 31 16 37 37 37 35 38 38 34 31 32 34 35 33 33 32 32 28 27 28 28 27 27 26 22 22 20 18 16 15 14 14
8 5 13 7 10 13 19 16 13 4 15 25 15 27 34 39 32 32 37 39 41 41 37 37 37 34 33 35 38 37 36 35 35 34 29 29 31 29 27 27 26 24 22 19 17 15 14 14 13
8 8 13 18 19 22 16 14 5 4 8 26 22 32 32 32 29 27 33 34 45 44 39 39 38 33 36 38 41 39 39 38 37 34 31 32 33 32 29 27 27 24 21 19 16 14 13 13 14
11 16 20 23 26 23 12 21 7 15 22 27 25 31 37 32 32 30 37 24 42 46 43 37 36 36 37 38 41 40 40 40 39 34 30 37 36 34 31 27 28 25 22 18 15 13 12 12 12
11 15 22 27 26 29 27 22 25 29 44 34 37 33 24 33 39 36 40 35 43 45 44 41 37 35 36 40 40 41 40 39 38 33 32 35 35 35 33 28 27 26 21 17 15 13 11 9 8
9 13 20 26 25 16 16 22 13 31 39 37 35 29 28 31 31 34 36 23 21 47 44 44 38 35 33 38 39 40 39 40 37 33 35 31 33 33 32 30 24 23 20 17 14 12 10 7 11
17 12 11 11 16 10 12 20 23 47 33 28 28 24 24 20 25 27 28 21 28 42 44 43 42 37 34 36 38 39 39 39 30 37 34 28 30 31 28 26 24 21 20 16 12 9 9 10 8
4 3 2 3 12 8 11 23 16 14 10 17 16 22 25 21 27 19 19 22 13 43 39 42 40 28 31 33 37 40 39 34 38 35 33 29 28 29 25 27 25 21 18 16 15 14 12 12 11
3 4 5 11 9 8 12 11 12 19 11 11 18 18 17 15 11 15 23 21 33 27 36 35 30 44 40 31 36 38 36 34 39 32 36 35 31 29 27 26 23 20 18 17 16 15 14 13 12
5 7 8 11 6 16 10 20 20 24 14 12 17 19 14 10 9 13 14 30 25 22 31 34 32 30 42 36 38 34 34 38 40 38 38 37 34 32 28 25 23 20 19 17 15 15 14 13 11
14 12 15 16 9 5 17 19 19 15 12 5 17 19 15 19 16 14 25 18 12 21 25 38 26 29 44 41 43 43 40 37 38 40 39 36 34 32 29 25 23 20 17 16 15 14 13 13 12
8 11 12 7 6 5 9 16 16 7 5 10 13 16 11 22 18 13 20 16 12 18 21 20 35 27 38 46 45 43 41 39 39 38 38 35 31 31 29 25 21 18 16 15 15 14 14 13 15
6 5 7 14 10 9 6 8 8 1 4 9 16 11 21 28 26 21 22 15 15 19 15 13 28 34 51 48 43 42 39 35 34 32 36 33 31 30 29 26 22 19 15 14 14 14 13 14 12
5 3 12 14 10 4 4 4 8 15 4 6 10 9 22 24 23 23 21 17 17 17 20 11 25 25 40 36 40 38 40 38 38 34 32 32 28 26 28 26 24 21 19 17 15 15 16 15 13
7 7 11 8 9 4 4 3 9 7 12 13 5 4 22 28 24 25 19 15 12 11 11 17 19 43 44 42 33 30 35 37 36 36 34 33 30 27 27 25 24 22 20 17 14 13 13 13 14
12 9 10 3 1 2 4 3 9 14 9 13 12 13 7 27 31 28 23 20 18 16 10 15 13 37 44 43 38 35 35 32 31 35 36 35 33 30 28 26 24 22 20 17 16 15 12 8 14
14 5 3 3 3 4 4 10 8 17 9 9 13 23 2 5 31 21 21 23 19 11 13 16 17 30 23 33 36 34 33 32 32 33 33 32 31 30 28 24 21 22 20 14 16 16 14 11 20
5 3 3 4 1 3 8 5 6 13 14 11 19 28 16 3 7 21 23 17 17 10 14 16 17 22 20 18 38 34 31 31 31 29 25 24 23 21 18 18 19 21 21 20 21 21 24 27 25
7 3 1 3 1 3 4 8 6 18 17 16 18 22 21 26 3 4 7 14 14 13 21 23 15 16 30 33 24 31 31 23 25 24 23 22 20 23 24 23 25 26 24 28 27 23 22 18 20
4 4 4 4 4 4 3 4 7 13 11 12 13 16 18 15 18 12 2 1 7 14 19 21 20 21 32 34 32 20 19 35 30 25 25 23 19 21 21 22 26 25 23 24 27 23 21 20 24
6 5 4 4 3 4 1 4 12 11 9 8 9 18 19 22 17 11 5 2 1 7 7 11 19 18 19 37 33 28 31 26 26 28 35 32 29 25 22 17 18 15 21 22 26 29 25 23 26
4 5 3 3 4 3 2 3 8 13 8 13 19 24 24 19 19 18 13 1 5 3 4 4 9 18 20 27 31 34 32 30 31 33 33 37 29 32 26 28 28 31 32 31 36 33 21 25 27
Wind_Direction
257 118 177 183 189 239 245 240 247 349 228 236 230 240 218 235 228 233 170 171 175 171 174 174 173 173 172 170 170 168 167 165 163 157 156 155 147 139 138 134 133 138 128 124 128 127 127 121 116
133 132 180 180 217 228 259 226 252 278 280 291 252 237 254 261 273 216 158 180 185 176 176 175 174 173 173 171 170 170 169 169 166 161 161 158 151 150 145 134 143 144 137 142 134 129 125 122 118
129 152 152 172 228 232 235 45 218 316 310 320 313 271 248 240 250 237 191 190 176 180 178 176 174 173 174 174 172 171 172 173 170 169 165 161 156 154 147 144 145 147 147 138 134 128 126 124 123
87 154 211 243 236 244 254 302 307 309 310 304 344 324 323 252 241 189 190 190 190 182 181 176 175 174 174 177 176 173 174 174 174 173 166 164 158 155 154 150 147 149 145 139 136 131 128 127 127
153 197 251 246 252 260 277 288 298 297 294 290 349 312 307 293 201 180 178 187 191 181 182 178 176 176 176 178 179 176 176 177 177 174 169 166 162 161 158 156 153 151 145 143 137 133 130 128 127
172 205 243 246 256 272 279 273 276 286 282 288 332 323 301 227 187 179 179 188 192 189 180 179 177 178 177 179 181 175 175 179 176 175 172 168 167 165 163 166 161 154 148 145 139 135 131 130 130
184 198 232 259 276 283 271 274 256 255 271 273 267 279 277 277 263 180 189 189 195 187 180 182 178 179 180 179 180 174 174 177 177 176 174 174 174 170 167 168 163 159 153 147 143 138 135 132 131
201 267 234 239 250 271 269 275 275 262 256 260 255 235 256 278 256 202 200 192 191 181 186 183 179 179 178 178 178 175 175 175 177 177 175 171 172 172 170 165 162 159 155 151 148 144 139 135 133
210 230 242 239 245 255 276 285 286 261 286 253 247 252 264 267 278 279 271 202 183 178 185 184 180 179 176 177 176 175 174 174 175 177 180 176 169 168 162 158 155 161 159 154 150 147 141 136 133
192 225 247 233 242 266 276 273 267 288 289 276 279 265 266 266 280 288 269 205 195 181 185 187 182 179 175 177 173 173 174 175 177 181 182 175 171 165 160 161 161 163 161 157 153 149 143 138 134
201 231 242 254 260 260 284 265 263 250 255 252 255 261 271 254 270 282 285 233 204 184 182 187 181 177 180 179 176 176 177 176 179 183 185 175 176 166 161 167 166 164 164 163 159 154 151 146 141
250 238 238 254 253 259 276 262 238 225 237 262 268 257 264 268 257 270 286 256 184 176 176 178 178 179 184 181 180 181 179 179 179 186 185 178 179 170 167 169 170 170 169 168 165 163 164 168 161
250 263 256 256 258 244 248 239 229 233 249 254 254 262 249 266 255 267 281 287 166 163 167 168 176 182 185 185 185 184 182 181 184 185 182 179 181 178 172 172 177 172 172 172 172 173 174 179 166
264 260 253 257 256 227 235 253 246 254 258 244 244 257 234 234 253 261 269 268 166 155 159 166 171 176 188 189 190 187 183 182 187 183 178 176 182 180 181 183 175 172 175 177 173 181 173 163 174
271 274 273 256 239 230 262 258 246 255 262 247 246 237 220 217 244 262 275 260 186 169 163 167 170 175 181 190 191 191 185 187 180 176 176 176 184 182 185 189 182 176 177 180 169 176 185 177 179
265 258 290 235 212 213 165 263 279 256 268 256 203 206 203 214 230 264 240 237 207 169 169 162 172 178 184 195 193 191 186 178 175 171 178 181 188 187 184 182 181 176 178 180 183 179 181 187 195
267 294 285 300 231 193 199 272 252 268 304 245 216 218 228 213 212 224 209 226 286 200 191 186 177 192 192 192 196 195 185 179 176 177 181 185 188 191 187 180 180 182 184 187 188 191 198 204 201
295 280 270 269 267 202 212 254 271 277 252 241 233 230 241 226 206 182 218 230 230 228 203 193 189 178 185 192 208 191 183 183 182 184 187 189 192 190 188 184 183 184 185 189 191 193 192 192 198
268 315 314 314 323 160 238 262 269 273 254 240 245 238 220 164 166 131 181 192 210 221 208 205 201 202 187 186 187 188 185 183 189 193 195 193 191 188 186 181 182 183 184 185 190 191 191 193 200
277 303 312 309 242 228 273 272 269 253 222 228 277 258 189 154 136 154 185 185 180 198 185 193 198 193 175 189 193 192 192 193 199 198 199 196 189 184 180 177 179 181 181 185 188 195 199 197 211
315 305 302 317 318 212 305 298 336 1 258 297 300 271 175 175 151 165 181 191 188 192 201 197 189 195 197 193 185 187 187 191 188 187 189 189 186 181 181 177 180 186 187 192 194 209 206 214 211
313 342 343 326 344 312 127 297 350 327 350 329 301 144 161 169 168 174 186 181 183 180 187 178 200 191 186 187 192 185 180 180 183 182 182 182 180 180 183 183 186 191 195 207 210 219 225 222 224
256 311 305 289 299 328 341 70 320 14 354 14 284 153 180 176 172 189 182 165 145 186 210 202 187 179 183 185 200 193 194 189 180 181 184 181 184 190 185 189 195 196 200 204 210 223 240 241 257
276 301 301 252 252 25 290 117 359 2 57 353 11 7 192 184 174 162 152 167 149 153 145 207 174 167 189 184 185 201 202 197 188 184 185 184 187 190 196 197 195 193 194 199 200 215 225 251 274
358 10 347 14 16 216 358 74 53 3 27 81 8 2 80 85 154 162 177 180 154 159 176 171 173 183 159 191 181 192 192 189 193 191 188 185 186 186 186 189 192 194 198 224 224 222 232 246 272
309 54 345 20 56 323 22 46 20 5 39 39 42 5 30 52 171 181 193 182 178 180 196 183 179 184 197 168 180 190 187 183 185 189 187 196 196 201 197 205 221 229 244 257 242 252 262 259 245
313 22 165 303 182 47 5 355 343 5 17 49 65 23 19 39 54 184 214 217 201 208 220 213 200 188 194 199 173 184 189 193 204 207 209 213 219 223 218 216 220 225 242 249 238 244 247 235 254
54 295 35 345 36 77 342 65 6 7 8 17 32 47 23 16 42 50 56 234 221 227 238 228 221 215 200 196 205 210 220 214 224 221 223 219 225 222 229 227 239 247 264 248 238 236 237 246 254
1 20 26 119 31 20 50 69 8 354 358 23 15 39 36 38 30 28 53 123 230 241 229 250 228 221 210 207 204 211 214 215 219 230 232 232 225 235 246 249 237 242 252 240 239 240 238 228 248
67 36 47 85 335 35 81 59 324 340 0 39 37 43 50 52 44 41 43 94 186 131 183 147 205 221 218 208 207 218 235 242 245 240 222 230 232 226 225 244 234 229 231 232 243 257 246 236 236